Location: Lake Almanor
(40.2485°N, 121.1442°W)
Time: 23:03:27
(UTC-08:00)

STARLINK-1117 - Pass Details

Date: 28 January 2020
Orbit: 348 x 351 km, 53.0° (Epoch: 22 February)

Event Time Altitude Azimuth Distance (km) Brightness Sun altitude
Rises 18:24:40 0° 319° (NW) 2,179 7.1 -12.9°
Reaches altitude 10° 18:27:20 10° 346° (NNW) 1,332 5.6 -13.4°
Enters shadow 18:29:02 14° 21° (NNE) 1,102 4.9 -13.7°
